Portsmouth, NH

1:24 AM EDT on April 25, 2018 (GMT -0400)
Pease International Tradeport

Weather History for KPSM - July, 2013

Change the Weather History Date:

Monday, July 15, 2013

  Actual Average Record
Temperature  
Mean Temperature 79 °F -  
Max Temperature 89 °F 78 °F 97 °F (1995)
Min Temperature 69 °F 59 °F 50 °F (1977)
Cooling Degree Days 14    
Growing Degree Days 29 (Base 50)    
Moisture  
Dew Point 71 °F    
Average Humidity 76    
Maximum Humidity 99    
Minimum Humidity 51    
Precipitation  
Precipitation 0.00 in - - ()
Sea Level Pressure  
Sea Level Pressure 30.14 in    
Wind  
Wind Speed 4 mph (SW)    
Max Wind Speed 10 mph    
Max Gust Speed -    
Visibility 9 miles    
Events      
Averages and records for this station are not official NWS values.
T = Trace of Precipitation, MM = Missing Value Source: NWS Daily Summary

Daily Weather History Graph

Daily Weather History Graph

Search for Another Location

Airport or City:

Astronomy

Jul. 15, 2013 Rise Set
Actual Time 5:17 AM EDT 8:20 PM EDT
Civil Twilight 4:43 AM EDT 8:54 PM EDT
Nautical Twilight 3:59 AM EDT 9:37 PM EDT
Astronomical Twilight 3:07 AM EDT 10:29 PM EDT
Moon 12:47 PM EDT (7/15) 11:51 PM EDT (7/15)
Length of Visible Light 16h 10m
Length of Day
15h 02m
Waxing Crescent, 45% of the Moon is Illuminated
Jul 15
Waxing Crescent
Jul 15
First Quarter
Jul 22
Full
Jul 29
Last Quarter
Aug 6
New

Hourly Weather History & Observations

Time (EDT) Temp. Heat Index Dew Point Humidity Pressure Visibility Wind Dir Wind Speed Gust Speed Precip Events Conditions
12:58 AM 71.1 °F - 70.9 °F 99% 30.18 in 8.0 mi SW 2.3 mph - N/A   Clear
1:58 AM 71.8 °F - 71.4 °F 99% 30.18 in 8.0 mi West 2.3 mph - N/A   Clear
2:58 AM 71.6 °F - 71.2 °F 99% 30.17 in 8.0 mi West 3.5 mph - N/A   Clear
3:58 AM 70.0 °F - 69.6 °F 99% 30.17 in 8.0 mi West 1.2 mph - N/A   Clear
4:58 AM 70.0 °F - 69.8 °F 99% 30.17 in 8.0 mi West 5.8 mph - N/A   Partly Cloudy
5:58 AM 69.8 °F - 69.4 °F 99% 30.17 in 7.0 mi West 3.5 mph - N/A   Scattered Clouds
6:58 AM 72.0 °F - 70.9 °F 96% 30.19 in 8.0 mi West 3.5 mph - N/A   Mostly Cloudy
7:58 AM 74.8 °F - 71.1 °F 88% 30.19 in 10.0 mi WSW 2.3 mph - N/A   Mostly Cloudy
8:58 AM 80.1 °F 83.4 °F 70.7 °F 73% 30.19 in 10.0 mi Variable 2.3 mph - N/A   Mostly Cloudy
9:58 AM 82.6 °F 87.3 °F 71.6 °F 69% 30.18 in 10.0 mi Variable 2.3 mph - N/A   Scattered Clouds
10:58 AM 87.3 °F 93.6 °F 72.0 °F 60% 30.17 in 10.0 mi Variable 2.3 mph - N/A   Scattered Clouds
11:58 AM 89.6 °F 94.3 °F 69.4 °F 51% 30.16 in 10.0 mi NNW 10.4 mph - N/A   Mostly Cloudy
12:58 PM 87.3 °F 90.5 °F 67.8 °F 52% 30.15 in 10.0 mi Variable 5.8 mph - N/A   Mostly Cloudy
1:09 PM 84.2 °F 88.4 °F 69.8 °F 62% 30.14 in 10.0 mi East 6.9 mph - N/A   Mostly Cloudy
1:58 PM 84.0 °F 88.1 °F 69.8 °F 62% 30.14 in 10.0 mi SSE 6.9 mph - N/A   Mostly Cloudy
2:58 PM 87.1 °F 91.6 °F 69.6 °F 56% 30.13 in 10.0 mi SSW 5.8 mph - N/A   Mostly Cloudy
3:58 PM 87.1 °F 92.0 °F 70.0 °F 57% 30.11 in 10.0 mi SSE 8.1 mph - N/A   Scattered Clouds
4:58 PM 87.4 °F 93.1 °F 71.2 °F 58% 30.09 in 10.0 mi South 8.1 mph - N/A   Partly Cloudy
5:58 PM 85.8 °F 90.8 °F 70.7 °F 60% 30.08 in 10.0 mi SSE 6.9 mph - N/A   Partly Cloudy
6:58 PM 84.6 °F 90.3 °F 72.1 °F 66% 30.08 in 10.0 mi South 5.8 mph - N/A   Partly Cloudy
7:58 PM 80.8 °F 84.9 °F 72.0 °F 74% 30.08 in 10.0 mi SE 4.6 mph - N/A   Partly Cloudy
8:58 PM 78.6 °F - 71.1 °F 78% 30.10 in 8.0 mi SSW 3.5 mph - N/A   Partly Cloudy
9:58 PM 76.8 °F - 71.2 °F 83% 30.11 in 8.0 mi WSW 3.5 mph - N/A   Partly Cloudy
10:58 PM 77.5 °F - 70.3 °F 78% 30.11 in 8.0 mi NW 4.6 mph - N/A   Mostly Cloudy
11:58 PM 75.2 °F - 69.1 °F 81% 30.12 in 8.0 mi West 4.6 mph - N/A   Scattered Clouds